2024 we
WE Auvergne - A la découverte de "LA TATAVE"
Bonjour
les 5 et 6 octobre, une douzaine Mardésiens se sont donnés rendez vous à coté de Volvic pour rouler sur les traces de la TATAVE, randonnée organisée par un petit club local autour des volcans environnant.
Apres avoir fait la route le samedi, vous voila arrivés dans un petit hôtel à qqes kilomètres de la randonnée
Le samedi après midi, une petite sortie pour tester le circuit, les vélos mais aussi les bosses....
Le soir, l'hôtel nous avait concocté une repas excellent, puis nous avons rejoint nos chambrées ou chacun a pu découvrir l'intimité de son voisin de ....lit !
Bouchons d'oreilles obligatoires dans certaines chambres
Toute la nuit il pleut
Au levé, il ne pleut plus mais le sol est bien humide et "gadouilleux"
Le soleil se lève et c'est sous un beau soleil que nous partons pour 4 à 6 h de vélo !
Le parcours est superbe, évidemment pas plat !
Nous parcourons les alentours de Volvic, Vulcania, tournons autour des volcans, souvent en sous bois
Les ravitaillements disposent des sucreries habituelles mais aussi de cantal, st nectaire et autre saucisson locaux
Le soir, boisson de récupération et petits délires avant de passer une nouvelle nuit puis reprendre la route le lundi matin
Week End club Vosges
Hello,
Les 18 et 19 Mai dernier, 22 d'entre nous sont allés se promener au sud d'Epinal, à Plombières les Bains.
Profitant du WE de la Pentecôte, nous voila parti à 13 VTTs et 9 randonneuses (nos épouses), pour 2 jours de superbes balades dans les Vosges
Hébergé au camping Fraiteux, voir lien ci dessous, au cœur du terrain de Jeu, Valentin nous avait tracé 2 jours de VTT et 2 jours de randonnées pédestres
Notre hébergement, super et au coeur du terrain de jeu !
Le Samedi après midi, petite balade de 35 km de VTT et 9 de marche
Partis sous le soleil, nous finirons tous, sans exception, sous des trombes d'eau, mais toujours avec la bonne humeur (si si promis)
La journée se termine par un petit repas dans le camping, sous une température un peu frisquette, mais rien de méchant !
Les filles partent sous le soleil vers Plombières, et termineront 3h plus tard sous des trombes d'eau !!
Fin de journée dans le camping, petit repas au sec et au frais
Dimanche est un autre jour
Soleil, bonne humeur (encore), motivation et 54 km de VTT et 15 km de randonnée, le tout avec pause repas le midi
Les paysages sont magnifiques, le soleil est de la partie, pas ou quasi pas d'incident mécanique, bref une superbe journée de VTT dans une très belle région
Les filles partent pour 2 randonnées et une bonne quinzaine de km de randos dans des paysages magnifiques également
Le midi, à l'occasion d'une grosse rando organisée, les filles négocient avec les organisateurs et ils nous accueillent pour pique niquer, quelques bières, café, et autres friandises en + de notre pique nique le tout sous le soleil
Certains feront même une petite sieste avant de repartir
Après cette belle journée de randos, verre de l'amitié puis un bon repas dans une auberge vosgienne sur les hauteurs des collines.
Nous repartons gavés et contents
Lundi, après un déjeuner tranquille, retour au bercail pour le petit groupe !
Encore un superbe week end, dans une magnifique région de balade à 3h30 d'Orléans, des gens tres sympathiques et accueillants, un camping super accueillant, aux prix modiques et 22 mardésiens contents de leur WE !!!
Merci à Valentin pour cette superbe organisation
Vivement le prochain
/image%2F0991831%2F20241015%2Fob_180587_img-20241005-wa0002.jpg)
/image%2F0991831%2F20241015%2Fob_185ece_20241004-194217.jpg)
/image%2F0991831%2F20241015%2Fob_5a2607_img-20241005-wa0001.jpg)
/image%2F0991831%2F20241015%2Fob_1c3098_img-20241005-wa0003.jpg)
/image%2F0991831%2F20241015%2Fob_61436f_img-20241005-wa0007.jpg)
/image%2F0991831%2F20241015%2Fob_7277fe_20241006-074419.jpg)
/image%2F0991831%2F20241015%2Fob_031163_20241005-193601.jpg)
/image%2F0991831%2F20241015%2Fob_4e0b18_20241005-203125.jpg)
/image%2F0991831%2F20241015%2Fob_83e9c0_img-20241006-wa0036.jpg)
/image%2F0991831%2F20241015%2Fob_2dbfab_img-20241006-wa0037.jpg)
/image%2F0991831%2F20241015%2Fob_75d6c0_img-20241006-wa0035.jpg)
/image%2F0991831%2F20241015%2Fob_e04e60_img-20241006-wa0039.jpg)
/image%2F0991831%2F20241015%2Fob_8d2095_20241006-085104.jpg)
/image%2F0991831%2F20241015%2Fob_0a2b7c_20241006-085108.jpg)
/image%2F0991831%2F20241015%2Fob_0ec9b6_img-20241007-wa0012.jpg)
/image%2F0991831%2F20241015%2Fob_497118_img-20241007-wa0013.jpg)
/image%2F0991831%2F20241015%2Fob_1d2701_img-20241007-wa0014.jpg)
/image%2F0991831%2F20241015%2Fob_fc473a_img-20241007-wa0015.jpg)
/image%2F0991831%2F20241015%2Fob_cd73b5_img-20241007-wa0016.jpg)
/image%2F0991831%2F20241015%2Fob_018b5c_img-20241007-wa0017.jpg)
/image%2F0991831%2F20241015%2Fob_5f09ac_img-20241007-wa0018.jpg)
/image%2F0991831%2F20241015%2Fob_2e07b0_img-20241007-wa0019.jpg)
/image%2F0991831%2F20241015%2Fob_d29969_img-20241007-wa0020.jpg)
/image%2F0991831%2F20241015%2Fob_00983e_img-20241007-wa0021.jpg)
/image%2F0991831%2F20241015%2Fob_e4af18_la-tatave-vtt-veloviewer-google.jpg)
/image%2F0991831%2F20241015%2Fob_b8c8be_20241006-085907.jpg)
/image%2F0991831%2F20241015%2Fob_2a62a4_20241006-082025.jpg)
/image%2F0991831%2F20241015%2Fob_c3b796_2024-10-lco-la-tatave-groupe.png)
/image%2F0991831%2F20241015%2Fob_317d97_img-20241006-wa0005.jpg)
/image%2F0991831%2F20241015%2Fob_3aaf78_img-20241006-wa0004.jpg)
/image%2F0991831%2F20241015%2Fob_828e5a_img-20241006-wa0009.jpg)
/image%2F0991831%2F20241015%2Fob_794a3b_img-20241006-wa0003.jpg)
/image%2F0991831%2F20241015%2Fob_2c9ae5_img-20241006-wa0021.jpg)
/image%2F0991831%2F20241015%2Fob_2e8b2f_img-20241006-wa0031.jpg)
/image%2F0991831%2F20241015%2Fob_04c631_img-20241006-wa0032.jpg)
/image%2F0991831%2F20241015%2Fob_d852a4_img-20241006-wa0033.jpg)
/http%3A%2F%2Fstatic1.squarespace.com%2Fstatic%2F5ff0764f50339566e9b732f4%2Ft%2F646b23e70213654a0f3dc13e%2F1609597267551%2FLogo%2Bcamping.png%3Fformat%3D1500w)
/image%2F0991831%2F20240530%2Fob_08e817_sortie-vtt-vosges-1-veloviewer-go.jpg)
/image%2F0991831%2F20240530%2Fob_49a351_20240518-072826.jpg)
/image%2F0991831%2F20240530%2Fob_bf42f4_20240518-072831.jpg)
/image%2F0991831%2F20240530%2Fob_3aece2_20240518-074259.jpg)
/image%2F0991831%2F20240530%2Fob_4fd3c9_img-20240518-wa0085.jpg)
/image%2F0991831%2F20240530%2Fob_e72c05_img-20240518-wa0087.jpg)
/image%2F0991831%2F20240530%2Fob_33fff6_20240518-150800.jpg)
/image%2F0991831%2F20240530%2Fob_a8aaa6_20240518-150810.jpg)
/image%2F0991831%2F20240530%2Fob_83d4cf_20240518-150816.jpg)
/image%2F0991831%2F20240530%2Fob_873421_20240518-150817.jpg)
/image%2F0991831%2F20240530%2Fob_e1efbf_20240518-150820.jpg)
/image%2F0991831%2F20240530%2Fob_af55ed_20240518-150832.jpg)
/image%2F0991831%2F20240530%2Fob_177ae8_20240518-150834.jpg)
/image%2F0991831%2F20240530%2Fob_48f7dd_20240518-150836.jpg)
/image%2F0991831%2F20240530%2Fob_358231_20240518-150837.jpg)
/image%2F0991831%2F20240530%2Fob_031312_20240518-150838.jpg)
/image%2F0991831%2F20240530%2Fob_8fd5e5_20240518-150840-0.jpg)
/image%2F0991831%2F20240530%2Fob_8bae75_20240518-150840.jpg)
/image%2F0991831%2F20240530%2Fob_50d9d0_20240518-150841.jpg)
/image%2F0991831%2F20240530%2Fob_f9f05a_20240518-154153.jpg)
/image%2F0991831%2F20240530%2Fob_ef9994_20240518-154155.jpg)
/image%2F0991831%2F20240530%2Fob_a78981_20240518-154158.jpg)
/image%2F0991831%2F20240530%2Fob_6ea4c2_20240518-154201.jpg)
/image%2F0991831%2F20240530%2Fob_517eab_20240518-154207.jpg)
/image%2F0991831%2F20240530%2Fob_a684e1_20240518-154211.jpg)
/image%2F0991831%2F20240530%2Fob_e9ef81_20240518-154214.jpg)
/image%2F0991831%2F20240530%2Fob_ba665b_20240518-154219.jpg)
/image%2F0991831%2F20240530%2Fob_bb1b20_20240518-154224.jpg)
/image%2F0991831%2F20240530%2Fob_fb3d27_20240518-154237.jpg)
/image%2F0991831%2F20240530%2Fob_b79261_20240518-154239.jpg)
/image%2F0991831%2F20240530%2Fob_5d5fc4_20240518-154250.jpg)
/image%2F0991831%2F20240530%2Fob_2be795_20240518-154253.jpg)
/image%2F0991831%2F20240530%2Fob_7305fa_20240518-154255.jpg)
/image%2F0991831%2F20240530%2Fob_8e2ab2_img-20240518-wa0123.jpg)
/image%2F0991831%2F20240530%2Fob_e70e53_img-20240518-wa0124.jpg)
/image%2F0991831%2F20240530%2Fob_2ec55e_img-20240518-wa0125.jpg)
/image%2F0991831%2F20240530%2Fob_f27034_img-20240518-wa0126.jpg)
/image%2F0991831%2F20240530%2Fob_7367af_img-20240518-wa0127.jpg)
/image%2F0991831%2F20240530%2Fob_eef08b_img-20240518-wa0128.jpg)
/image%2F0991831%2F20240530%2Fob_ea28f3_img-20240518-wa0129.jpg)
/image%2F0991831%2F20240530%2Fob_184fc8_img-20240518-wa0130.jpg)
/image%2F0991831%2F20240530%2Fob_b5a670_img-20240518-wa0131.jpg)
/image%2F0991831%2F20240530%2Fob_729193_img-20240518-wa0132.jpg)
/image%2F0991831%2F20240530%2Fob_d7ca86_img-20240518-wa0133.jpg)
/image%2F0991831%2F20240530%2Fob_8760e4_img-20240518-wa0134.jpg)
/image%2F0991831%2F20240530%2Fob_2966d3_img-20240518-wa0135.jpg)
/image%2F0991831%2F20240530%2Fob_2d3a31_img-20240518-wa0049.jpg)
/image%2F0991831%2F20240530%2Fob_5c6bca_img-20240518-wa0090.jpg)
/image%2F0991831%2F20240530%2Fob_8257b1_img-20240518-wa0091.jpg)
/image%2F0991831%2F20240530%2Fob_a689ab_img-20240518-wa0094.jpg)
/image%2F0991831%2F20240530%2Fob_77f78b_img-20240518-wa0102.jpg)
/image%2F0991831%2F20240530%2Fob_3673c5_20240518-160603.jpg)
/image%2F0991831%2F20240530%2Fob_e76ee1_img-20240518-wa0044.jpg)
/image%2F0991831%2F20240530%2Fob_9a335b_img-20240518-wa0045.jpg)
/image%2F0991831%2F20240530%2Fob_6eacd2_img-20240518-wa0047.jpg)
/image%2F0991831%2F20240530%2Fob_964542_img-20240518-wa0048.jpg)
/image%2F0991831%2F20240530%2Fob_7059ad_img-20240518-wa0050.jpg)
/image%2F0991831%2F20240530%2Fob_38882a_img-20240518-wa0052.jpg)
/image%2F0991831%2F20240530%2Fob_695751_img-20240518-wa0053.jpg)
/image%2F0991831%2F20240530%2Fob_71fca8_img-20240518-wa0095.jpg)
/image%2F0991831%2F20240530%2Fob_a32266_img-20240518-wa0096.jpg)
/image%2F0991831%2F20240530%2Fob_1bbae1_img-20240518-wa0097.jpg)
/image%2F0991831%2F20240530%2Fob_d60e0a_img-20240518-wa0098.jpg)
/image%2F0991831%2F20240530%2Fob_7ad391_img-20240518-wa0099.jpg)
/image%2F0991831%2F20240530%2Fob_e3e85e_img-20240518-wa0100.jpg)
/image%2F0991831%2F20240530%2Fob_006c20_img-20240518-wa0101.jpg)
/image%2F0991831%2F20240530%2Fob_0d0f38_img-20240518-wa0046.jpg)
/image%2F0991831%2F20240530%2Fob_d45e28_img-20240518-wa0109.jpg)
/image%2F0991831%2F20240530%2Fob_ba32ad_img-20240518-wa0110.jpg)
/image%2F0991831%2F20240530%2Fob_108e96_img-20240518-wa0113.jpg)
/image%2F0991831%2F20240530%2Fob_f69e04_img-20240518-wa0115.jpg)
/image%2F0991831%2F20240530%2Fob_cc2f14_20240518-201548.jpg)
/image%2F0991831%2F20240530%2Fob_c811eb_20240518-201646.jpg)
/image%2F0991831%2F20240530%2Fob_98ef15_20240518-201659.jpg)
/image%2F0991831%2F20240530%2Fob_55dcf1_20240518-215026.jpg)
/image%2F0991831%2F20240530%2Fob_1c0648_20240518-215033.jpg)
/image%2F0991831%2F20240530%2Fob_9c7882_20240518-215037.jpg)
/image%2F0991831%2F20240530%2Fob_93ff7f_20240518-215040.jpg)
/image%2F0991831%2F20240530%2Fob_a71235_20240518-220339.jpg)
/image%2F0991831%2F20240530%2Fob_cd3a59_sortie-vtt-vosges-2-veloviewer-g.jpg)
/image%2F0991831%2F20240530%2Fob_3c8482_img-20240519-wa0002.jpg)
/image%2F0991831%2F20240530%2Fob_21ef5f_img-20240519-wa0099.jpg)
/image%2F0991831%2F20240530%2Fob_d3eebb_img-20240519-wa0124.jpg)
/image%2F0991831%2F20240530%2Fob_a2d177_20240519-120939.jpg)
/image%2F0991831%2F20240530%2Fob_989d5c_20240519-121951.jpg)
/image%2F0991831%2F20240530%2Fob_1efb29_20240519-122009.jpg)
/image%2F0991831%2F20240530%2Fob_c15097_20240519-122020.jpg)
/image%2F0991831%2F20240530%2Fob_ff20c3_20240519-122512.jpg)
/image%2F0991831%2F20240530%2Fob_96445f_20240519-122619.jpg)
/image%2F0991831%2F20240530%2Fob_1a1ce7_20240519-122621.jpg)
/image%2F0991831%2F20240530%2Fob_587972_20240519-122628.jpg)
/image%2F0991831%2F20240530%2Fob_53cdc0_20240519-122630.jpg)
/image%2F0991831%2F20240530%2Fob_9cd21a_20240519-122645.jpg)
/image%2F0991831%2F20240530%2Fob_f39302_20240519-122646.jpg)
/image%2F0991831%2F20240530%2Fob_8ffa50_20240519-122651.jpg)
/image%2F0991831%2F20240530%2Fob_106e5a_20240519-122652.jpg)
/image%2F0991831%2F20240530%2Fob_2d3b36_20240519-122654.jpg)
/image%2F0991831%2F20240530%2Fob_612d0a_20240519-122705.jpg)
/image%2F0991831%2F20240530%2Fob_6d149c_20240519-122706.jpg)
/image%2F0991831%2F20240530%2Fob_728345_20240519-122727.jpg)
/image%2F0991831%2F20240530%2Fob_67e0bf_20240519-122729.jpg)
/image%2F0991831%2F20240530%2Fob_0c03ef_20240519-122802.jpg)
/image%2F0991831%2F20240530%2Fob_efb522_20240519-122803.jpg)
/image%2F0991831%2F20240530%2Fob_dec50f_20240519-122833.jpg)
/image%2F0991831%2F20240530%2Fob_b31407_20240519-122834.jpg)
/image%2F0991831%2F20240530%2Fob_693909_20240519-122851.jpg)
/image%2F0991831%2F20240530%2Fob_b04806_20240519-122852.jpg)
/image%2F0991831%2F20240530%2Fob_f4cc6b_20240519-131909.jpg)
/image%2F0991831%2F20240530%2Fob_f6e9ab_20240519-131914.jpg)
/image%2F0991831%2F20240530%2Fob_f6c558_20240519-131926.jpg)
/image%2F0991831%2F20240530%2Fob_43aed4_20240519-163818.jpg)
/image%2F0991831%2F20240530%2Fob_91f6ac_20240519-163831.jpg)
/image%2F0991831%2F20240530%2Fob_b7a26e_20240519-163837.jpg)
/image%2F0991831%2F20240530%2Fob_27872f_20240519-170512.jpg)
/image%2F0991831%2F20240530%2Fob_fe0759_20240519-170519.jpg)
/image%2F0991831%2F20240530%2Fob_da9ed5_20240519-170525.jpg)
/image%2F0991831%2F20240530%2Fob_d85cc6_20240519-171512.jpg)
/image%2F0991831%2F20240530%2Fob_27a80b_20240519-171517.jpg)
/image%2F0991831%2F20240530%2Fob_6361e3_20240519-171518.jpg)
/image%2F0991831%2F20240530%2Fob_508326_20240519-171524.jpg)
/image%2F0991831%2F20240530%2Fob_23a9c8_20240519-171529.jpg)
/image%2F0991831%2F20240530%2Fob_f6617e_20240519-171531.jpg)
/image%2F0991831%2F20240530%2Fob_e57f23_20240519-171535.jpg)
/image%2F0991831%2F20240530%2Fob_67b850_img-20240519-wa0004.jpg)
/image%2F0991831%2F20240530%2Fob_a7d5dd_img-20240519-wa0005.jpg)
/image%2F0991831%2F20240530%2Fob_ce90d3_img-20240519-wa0006.jpg)
/image%2F0991831%2F20240530%2Fob_0a23cb_img-20240519-wa0007.jpg)
/image%2F0991831%2F20240530%2Fob_729280_img-20240519-wa0008.jpg)
/image%2F0991831%2F20240530%2Fob_c28a99_img-20240519-wa0009.jpg)
/image%2F0991831%2F20240530%2Fob_cfdc62_img-20240519-wa0011.jpg)
/image%2F0991831%2F20240530%2Fob_57e45f_img-20240519-wa0012.jpg)
/image%2F0991831%2F20240530%2Fob_d802c5_img-20240519-wa0013.jpg)
/image%2F0991831%2F20240530%2Fob_9f990e_img-20240519-wa0014.jpg)
/image%2F0991831%2F20240530%2Fob_41f753_img-20240519-wa0015.jpg)
/image%2F0991831%2F20240530%2Fob_6c935c_img-20240519-wa0017.jpg)
/image%2F0991831%2F20240530%2Fob_a5ad64_img-20240519-wa0024.jpg)
/image%2F0991831%2F20240530%2Fob_d93632_img-20240519-wa0027.jpg)
/image%2F0991831%2F20240530%2Fob_a6b61f_img-20240519-wa0034.jpg)
/image%2F0991831%2F20240530%2Fob_090935_img-20240519-wa0036.jpg)
/image%2F0991831%2F20240530%2Fob_1d49c2_img-20240519-wa0044.jpg)
/image%2F0991831%2F20240530%2Fob_8951c0_img-20240519-wa0045.jpg)
/image%2F0991831%2F20240530%2Fob_b34355_img-20240519-wa0046.jpg)
/image%2F0991831%2F20240530%2Fob_20e24b_img-20240519-wa0047.jpg)
/image%2F0991831%2F20240530%2Fob_7a63cc_img-20240519-wa0048.jpg)
/image%2F0991831%2F20240530%2Fob_3b54d6_img-20240519-wa0049.jpg)
/image%2F0991831%2F20240530%2Fob_9fb508_img-20240519-wa0050.jpg)
/image%2F0991831%2F20240530%2Fob_2646dc_img-20240519-wa0052.jpg)
/image%2F0991831%2F20240530%2Fob_19cba6_img-20240519-wa0091.jpg)
/image%2F0991831%2F20240530%2Fob_567247_img-20240519-wa0094.jpg)
/image%2F0991831%2F20240530%2Fob_c950a7_img-20240519-wa0095.jpg)
/image%2F0991831%2F20240530%2Fob_6095ea_img-20240519-wa0096.jpg)
/image%2F0991831%2F20240530%2Fob_e55682_img-20240519-wa0097.jpg)
/image%2F0991831%2F20240530%2Fob_886dd6_img-20240519-wa0107.jpg)
/image%2F0991831%2F20240530%2Fob_e346cd_img-20240519-wa0108.jpg)
/image%2F0991831%2F20240530%2Fob_ebcea5_img-20240519-wa0109.jpg)
/image%2F0991831%2F20240530%2Fob_db2eea_img-20240519-wa0110.jpg)
/image%2F0991831%2F20240530%2Fob_d2e88a_img-20240519-wa0111.jpg)
/image%2F0991831%2F20240530%2Fob_f8ae0c_img-20240519-wa0112.jpg)
/image%2F0991831%2F20240530%2Fob_fa2cef_img-20240519-wa0113.jpg)
/image%2F0991831%2F20240530%2Fob_340a84_img-20240519-wa0114.jpg)
/image%2F0991831%2F20240530%2Fob_40c529_img-20240519-wa0115.jpg)
/image%2F0991831%2F20240530%2Fob_1402a5_img-20240519-wa0118.jpg)
/image%2F0991831%2F20240530%2Fob_0361bb_img-20240519-wa0119.jpg)
/image%2F0991831%2F20240530%2Fob_b2afcf_img-20240519-wa0120.jpg)
/image%2F0991831%2F20240530%2Fob_c76e01_img-20240519-wa0121.jpg)
/image%2F0991831%2F20240530%2Fob_e3e1aa_img-20240519-wa0122.jpg)
/image%2F0991831%2F20240530%2Fob_3f46a2_img-20240519-wa0123.jpg)
/image%2F0991831%2F20240530%2Fob_d749ee_img-20240519-wa0125.jpg)
/image%2F0991831%2F20240530%2Fob_05c88b_img-20240519-wa0126.jpg)
/image%2F0991831%2F20240530%2Fob_74555b_img-20240519-wa0127.jpg)
/image%2F0991831%2F20240530%2Fob_6d9ce9_img-20240519-wa0174.jpg)
/image%2F0991831%2F20240530%2Fob_962ba8_img-20240519-wa0178.jpg)
/image%2F0991831%2F20240530%2Fob_e137b0_img-20240519-wa0179.jpg)
/image%2F0991831%2F20240530%2Fob_0e0418_img-20240519-wa0180.jpg)
/image%2F0991831%2F20240530%2Fob_1cc470_img-20240519-wa0181.jpg)
/image%2F0991831%2F20240530%2Fob_107263_img-20240519-wa0182.jpg)
/image%2F0991831%2F20240530%2Fob_bbb170_img-20240519-wa0183.jpg)
/image%2F0991831%2F20240530%2Fob_705e80_img-20240519-wa0184.jpg)
/image%2F0991831%2F20240530%2Fob_c41397_img-20240519-wa0185.jpg)
/image%2F0991831%2F20240530%2Fob_682c01_img-20240519-wa0186.jpg)
/image%2F0991831%2F20240530%2Fob_21f2f3_img-20240519-wa0187.jpg)
/image%2F0991831%2F20240530%2Fob_3ba812_img-20240519-wa0188.jpg)
/image%2F0991831%2F20240530%2Fob_f5088a_img-20240519-wa0189.jpg)
/image%2F0991831%2F20240530%2Fob_21af85_img-20240519-wa0190.jpg)
/image%2F0991831%2F20240530%2Fob_c96338_img-20240519-wa0191.jpg)
/image%2F0991831%2F20240530%2Fob_0e2510_img-20240519-wa0192.jpg)
/image%2F0991831%2F20240530%2Fob_504bf9_img-20240519-wa0193.jpg)
/image%2F0991831%2F20240530%2Fob_e6d72b_img-20240519-wa0194.jpg)
/image%2F0991831%2F20240530%2Fob_545ec8_img-20240519-wa0195.jpg)
/image%2F0991831%2F20240530%2Fob_3ae29e_img-20240519-wa0197.jpg)
/image%2F0991831%2F20240530%2Fob_5096c2_img-20240519-wa0198.jpg)
/image%2F0991831%2F20240530%2Fob_02d8ce_img-20240519-wa0201.jpg)
/image%2F0991831%2F20240530%2Fob_22fec5_img-20240519-wa0203.jpg)
/image%2F0991831%2F20240530%2Fob_98e402_img-20240519-wa0204.jpg)
/image%2F0991831%2F20240530%2Fob_a5cc4e_img-20240519-wa0205.jpg)
/image%2F0991831%2F20240530%2Fob_57e228_img-20240519-wa0206.jpg)
/image%2F0991831%2F20240530%2Fob_754189_img-20240519-wa0207.jpg)
/image%2F0991831%2F20240530%2Fob_a286e4_img-20240519-wa0231.jpg)
/image%2F0991831%2F20240530%2Fob_e2a7b8_img-20240519-wa0232.jpg)
/image%2F0991831%2F20240530%2Fob_052b99_img-20240519-wa0233.jpg)
/image%2F0991831%2F20240530%2Fob_39ee91_img-20240519-wa0234.jpg)
/image%2F0991831%2F20240530%2Fob_cf7de3_img-20240519-wa0235.jpg)
/image%2F0991831%2F20240530%2Fob_925c75_img-20240519-wa0236.jpg)
/image%2F0991831%2F20240530%2Fob_8ca01a_img-20240519-wa0237.jpg)
/image%2F0991831%2F20240530%2Fob_5c4a04_img-20240519-wa0238.jpg)
/image%2F0991831%2F20240530%2Fob_92447f_img-20240519-wa0239.jpg)
/image%2F0991831%2F20240530%2Fob_0dbc92_img-20240519-wa0240.jpg)
/image%2F0991831%2F20240530%2Fob_529f5e_img-20240519-wa0241.jpg)
/image%2F0991831%2F20240530%2Fob_4d1c70_img-20240519-wa0072.jpg)
/image%2F0991831%2F20240530%2Fob_9dc165_img-20240519-wa0075.jpg)
/image%2F0991831%2F20240530%2Fob_b90590_img-20240519-wa0081.jpg)
/image%2F0991831%2F20240530%2Fob_2cf25f_img-20240519-wa0090.jpg)
/image%2F0991831%2F20240530%2Fob_7037e3_img-20240519-wa0103.jpg)
/image%2F0991831%2F20240530%2Fob_858b50_img-20240519-wa0037.jpg)
/image%2F0991831%2F20240530%2Fob_5d7e6e_img-20240519-wa0023.jpg)
/image%2F0991831%2F20240530%2Fob_143d74_img-20240519-wa0077.jpg)
/image%2F0991831%2F20240530%2Fob_2f312d_img-20240519-wa0079.jpg)
/image%2F0991831%2F20240530%2Fob_f95fe2_img-20240519-wa0100.jpg)
/image%2F0991831%2F20240530%2Fob_8cf209_img-20240519-wa0104.jpg)
/image%2F0991831%2F20240530%2Fob_970562_img-20240519-wa0105.jpg)
/image%2F0991831%2F20240530%2Fob_cf22ab_img-20240519-wa0106.jpg)
/image%2F0991831%2F20240530%2Fob_6d7d18_img-20240519-wa0208.jpg)
/image%2F0991831%2F20240530%2Fob_1489d8_img-20240519-wa0209.jpg)
/image%2F0991831%2F20240530%2Fob_cdf913_img-20240519-wa0210.jpg)
/image%2F0991831%2F20240530%2Fob_2fa312_img-20240519-wa0211.jpg)
/image%2F0991831%2F20240530%2Fob_87eeeb_img-20240519-wa0269.jpg)
/image%2F0991831%2F20240530%2Fob_217012_img-20240519-wa0270.jpg)
/image%2F0991831%2F20240530%2Fob_0e36e3_img-20240519-wa0271.jpg)
/image%2F0991831%2F20240530%2Fob_30e2b6_img-20240519-wa0272.jpg)
/image%2F0991831%2F20240530%2Fob_4c7fad_img-20240519-wa0273.jpg)
/image%2F0991831%2F20240530%2Fob_80fe41_img-20240519-wa0274.jpg)
/image%2F0991831%2F20240530%2Fob_d9a1cd_img-20240519-wa0275.jpg)
/image%2F0991831%2F20240530%2Fob_a350bb_20240519-142420.jpg)
/image%2F0991831%2F20240530%2Fob_6e1abb_20240519-145432.jpg)
/image%2F0991831%2F20240530%2Fob_8063f0_20240519-145501.jpg)
/image%2F0991831%2F20240530%2Fob_be63c1_img-20240519-wa0054.jpg)
/image%2F0991831%2F20240530%2Fob_233a20_img-20240519-wa0055.jpg)
/image%2F0991831%2F20240530%2Fob_a4e9ca_img-20240519-wa0056.jpg)
/image%2F0991831%2F20240530%2Fob_57b443_img-20240519-wa0057.jpg)
/image%2F0991831%2F20240530%2Fob_77690c_img-20240519-wa0059.jpg)
/image%2F0991831%2F20240530%2Fob_3aadb1_img-20240519-wa0060.jpg)
/image%2F0991831%2F20240530%2Fob_0eba61_img-20240519-wa0062.jpg)
/image%2F0991831%2F20240530%2Fob_123aca_img-20240519-wa0063.jpg)
/image%2F0991831%2F20240530%2Fob_cd9647_img-20240519-wa0064.jpg)
/image%2F0991831%2F20240530%2Fob_3d5a0d_img-20240519-wa0065.jpg)
/image%2F0991831%2F20240530%2Fob_5016c2_img-20240519-wa0066.jpg)
/image%2F0991831%2F20240530%2Fob_1fa325_img-20240519-wa0067.jpg)
/image%2F0991831%2F20240530%2Fob_e59cae_20240519-192835.jpg)
/image%2F0991831%2F20240530%2Fob_98fc18_img-20240519-wa0116.jpg)
/image%2F0991831%2F20240530%2Fob_3c1f5f_img-20240519-wa0117.jpg)
/image%2F0991831%2F20240530%2Fob_f4a83e_20240519-201615.jpg)
/image%2F0991831%2F20240530%2Fob_34ba8a_20240519-201834.jpg)
/image%2F0991831%2F20240530%2Fob_a375cb_img-20240519-wa0228.jpg)
/image%2F0991831%2F20240530%2Fob_aad1cb_img-20240519-wa0253.jpg)
/image%2F0991831%2F20240530%2Fob_dd2d1c_img-20240519-wa0255.jpg)
/image%2F0991831%2F20240530%2Fob_d01a6b_img-20240519-wa0256.jpg)
/image%2F0991831%2F20240530%2Fob_1f6c3f_img-20240519-wa0262.jpg)
/image%2F0991831%2F20240530%2Fob_31a149_img-20240519-wa0264.jpg)
/image%2F0991831%2F20240530%2Fob_5a9cd2_20240519-223519.jpg)
/image%2F0991831%2F20240530%2Fob_7a2001_20240519-223530.jpg)
/image%2F0991831%2F20240530%2Fob_1c4cec_20240519-223543.jpg)
/image%2F0991831%2F20240530%2Fob_62b0c8_20240519-223743.jpg)
/image%2F0991831%2F20240530%2Fob_a66e9d_img-20240519-wa0259.jpg)
/image%2F0991831%2F20240530%2Fob_1addfd_img-20240519-wa0260.jpg)
/image%2F0991831%2F20240530%2Fob_0e8b57_img-20240519-wa0261.jpg)
/image%2F0991831%2F20240530%2Fob_5155af_img-20240519-wa0263.jpg)
/image%2F0991831%2F20240530%2Fob_d13111_img-20240519-wa0265.jpg)
/image%2F0991831%2F20240530%2Fob_385d45_img-20240519-wa0267.jpg)
/image%2F0991831%2F20240530%2Fob_cb05b5_20240519-204450.jpg)
/image%2F0991831%2F20240530%2Fob_686583_20240519-204508.jpg)
/image%2F0991831%2F20240530%2Fob_b1aca1_img-20240519-wa0244.jpg)
/image%2F0991831%2F20240530%2Fob_99b9f5_img-20240519-wa0251.jpg)
/image%2F0991831%2F20240530%2Fob_019f02_img-20240519-wa0252.jpg)
/image%2F0991831%2F20240530%2Fob_b5196d_20240519-201623.jpg)
/image%2F0991831%2F20240530%2Fob_1d53f2_20240519-210530.jpg)
/image%2F0991831%2F20240530%2Fob_f5a92f_img-20240519-wa0227.jpg)
/image%2F0991831%2F20240530%2Fob_49ebc0_img-20240519-wa0248.jpg)
/image%2F0991831%2F20240530%2Fob_ffd35b_img-20240519-wa0258.jpg)
/image%2F0991831%2F20240530%2Fob_7d4d7e_20240520-094832.jpg)
/image%2F0991831%2F20240530%2Fob_43d0d6_20240520-094841.jpg)
/image%2F0991831%2F20240530%2Fob_8f6a73_img-20240520-wa0022.jpg)
/image%2F0991831%2F20240530%2Fob_274c6a_img-20240520-wa0023.jpg)
/image%2F0991831%2F20240530%2Fob_7d7983_img-20240520-wa0025.jpeg)
/image%2F0991831%2F20240530%2Fob_80eaa7_img-20240520-wa0037.jpg)
/image%2F0991831%2F20240530%2Fob_1722de_img-20240518-wa0123.jpg)
/image%2F0991831%2F20240530%2Fob_84004d_img-20240518-wa0087.jpg)
/image%2F0991831%2F20240530%2Fob_997c69_img-20240518-wa0102.jpg)
/image%2F0991831%2F20240530%2Fob_be642d_img-20240519-wa0002.jpg)
/image%2F0991831%2F20240530%2Fob_029e32_img-20240519-wa0099.jpg)
/image%2F0991831%2F20240530%2Fob_1945f8_img-20240519-wa0124.jpg)
/image%2F0991831%2F20240530%2Fob_37fd83_img-20240519-wa0103.jpg)